| time (UTC) | temp F | wind direction | speed MPH | gust MPH | rain 1hr in | rain 24hr in | rain mn in | humidity % | barometer mb |
| 20260831030524 | 86 | 176 | 1.0 | 3.0 | 0.00 | 0.00 | 0.00 | 64 | 1013.4 |
| 20260831030003 | 86 | 176 | 1.0 | 3.0 | 0.00 | 0.00 | 0.00 | 63 | 1013.2 |
| 20260831025503 | 86 | 165 | 1.0 | 2.0 | 0.00 | 0.00 | 0.00 | 62 | 1013.2 |
| 20260831025003 | 86 | 164 | 2.0 | 3.0 | 0.00 | 0.00 | 0.00 | 61 | 1013.2 |
| 20260831024503 | 87 | 173 | 2.0 | 3.0 | 0.00 | 0.00 | 0.00 | 61 | 1013.2 |
| 20260831024003 | 87 | 174 | 2.0 | 3.0 | 0.00 | 0.00 | 0.00 | 60 | 1013.1 |
| 20260831023503 | 87 | 175 | 2.0 | 4.0 | 0.00 | 0.00 | 0.00 | 58 | 1013.0 |
| 20260831023003 | 87 | 185 | 2.0 | 4.0 | 0.00 | 0.00 | 0.00 | 59 | 1012.9 |
| 20260831022503 | 87 | 186 | 2.0 | 4.0 | 0.00 | 0.00 | 0.00 | 59 | 1012.8 |
| 20260831022024 | 87 | 170 | 1.0 | 2.0 | 0.00 | 0.00 | 0.00 | 58 | 1012.6 |
| 20260831021504 | 88 | 93 | 1.0 | 2.0 | 0.00 | 0.00 | 0.00 | 58 | 1012.5 |
| 20260831021003 | 88 | 107 | 1.0 | 2.0 | 0.00 | 0.00 | 0.00 | 57 | 1012.4 |
| 20260831020503 | 88 | 166 | 1.0 | 3.0 | 0.00 | 0.00 | 0.00 | 56 | 1012.4 |
| 20260831020003 | 88 | 193 | 1.0 | 4.0 | 0.00 | 0.00 | 0.00 | 56 | 1012.3 |
| 20260831015503 | 88 | 200 | 1.0 | 4.0 | 0.00 | 0.00 | 0.00 | 55 | 1012.2 |
| 20260831015003 | 89 | 168 | 1.0 | 2.0 | 0.00 | 0.00 | 0.00 | 54 | 1012.2 |
| 20260831014503 | 89 | 173 | 1.0 | 2.0 | 0.00 | 0.00 | 0.00 | 54 | 1012.1 |
| 20260831014003 | 89 | 165 | 1.0 | 2.0 | 0.00 | 0.00 | 0.00 | 52 | 1012.1 |
| 20260831013524 | 90 | 141 | 0.0 | 2.0 | 0.00 | 0.00 | 0.00 | 51 | 1012.0 |
| 20260831013003 | 90 | 140 | 0.0 | 1.0 | 0.00 | 0.00 | 0.00 | 50 | 1012.0 |
| 20260831012503 | 90 | 160 | 0.0 | 2.0 | 0.00 | 0.00 | 0.00 | 48 | 1012.0 |
| 20260831012003 | 91 | 181 | 1.0 | 2.0 | 0.00 | 0.00 | 0.00 | 48 | 1011.9 |
| 20260831011503 | 91 | 187 | 1.0 | 2.0 | 0.00 | 0.00 | 0.00 | 47 | 1011.9 |
| 20260831011003 | 92 | 182 | 1.0 | 2.0 | 0.00 | 0.00 | 0.00 | 46 | 1011.9 |
| 20260831010524 | 92 | 180 | 1.0 | 2.0 | 0.00 | 0.00 | 0.00 | 46 | 1011.8 |
| 20260831010003 | 92 | 185 | 1.0 | 3.0 | 0.00 | 0.00 | 0.00 | 45 | 1011.8 |
| 20260831005503 | 93 | 191 | 2.0 | 3.0 | 0.00 | 0.00 | 0.00 | 43 | 1011.8 |
| 20260831005003 | 93 | 188 | 2.0 | 4.0 | 0.00 | 0.00 | 0.00 | 42 | 1011.8 |
| 20260831004503 | 94 | 183 | 1.0 | 4.0 | 0.00 | 0.00 | 0.00 | 41 | 1011.8 |
| 20260831004003 | 94 | 174 | 1.0 | 2.0 | 0.00 | 0.00 | 0.00 | 41 | 1011.8 |
| 20260831003503 | 95 | 144 | 1.0 | 2.0 | 0.00 | 0.00 | 0.00 | 39 | 1011.7 |
| 20260831003003 | 95 | 122 | 1.0 | 2.0 | 0.00 | 0.00 | 0.00 | 39 | 1011.8 |
| 20260831002525 | 96 | 122 | 1.0 | 2.0 | 0.00 | 0.00 | 0.00 | 38 | 1011.7 |
| 20260831002004 | 96 | 124 | 1.0 | 2.0 | 0.00 | 0.00 | 0.00 | 38 | 1011.7 |
| 20260831001504 | 96 | 98 | 1.0 | 2.0 | 0.00 | 0.00 | 0.00 | 38 | 1011.6 |
| 20260831001004 | 97 | 98 | 1.0 | 2.0 | 0.00 | 0.00 | 0.00 | 38 | 1011.6 |
| 20260831000504 | 97 | 100 | 1.0 | 3.0 | 0.00 | 0.00 | 0.00 | 38 | 1011.6 |
| 20260831000004 | 97 | 135 | 1.0 | 5.0 | 0.00 | 0.00 | 0.00 | 38 | 1011.7 |
| 20260830235504 | 97 | 160 | 1.0 | 5.0 | 0.00 | 0.00 | 0.00 | 39 | 1011.7 |
| 20260830235025 | 97 | 152 | 1.0 | 3.0 | 0.00 | 0.00 | 0.00 | 39 | 1011.7 |
| 20260830234525 | 97 | 100 | 1.0 | 4.0 | 0.00 | 0.00 | 0.00 | 40 | 1011.7 |
| 20260830234025 | 98 | 128 | 2.0 | 4.0 | 0.00 | 0.00 | 0.00 | 41 | 1011.7 |
| 20260830233525 | 98 | 160 | 2.0 | 5.0 | 0.00 | 0.00 | 0.00 | 41 | 1011.7 |
| 20260830233004 | 98 | 168 | 3.0 | 5.0 | 0.00 | 0.00 | 0.00 | 42 | 1011.7 |
| 20260830232504 | 98 | 155 | 2.0 | 5.0 | 0.00 | 0.00 | 0.00 | 41 | 1011.6 |
| 20260830232004 | 98 | 133 | 2.0 | 5.0 | 0.00 | 0.00 | 0.00 | 40 | 1011.8 |
| 20260830231504 | 98 | 119 | 1.0 | 5.0 | 0.00 | 0.00 | 0.00 | 40 | 1011.8 |
| 20260830231004 | 99 | 128 | 2.0 | 4.0 | 0.00 | 0.00 | 0.00 | 40 | 1011.8 |
| 20260830230525 | 99 | 166 | 3.0 | 7.0 | 0.00 | 0.00 | 0.00 | 40 | 1011.8 |
| 20260830230004 | 100 | 190 | 3.0 | 7.0 | 0.00 | 0.00 | 0.00 | 38 | 1011.8 |
| 20260830225504 | 100 | 153 | 2.0 | 5.0 | 0.00 | 0.00 | 0.00 | 38 | 1011.8 |
| 20260830225004 | 100 | 121 | 2.0 | 5.0 | 0.00 | 0.00 | 0.00 | 37 | 1011.8 |
| 20260830224525 | 100 | 200 | 2.0 | 5.0 | 0.00 | 0.00 | 0.00 | 37 | 1011.7 |
| 20260830224004 | 100 | 186 | 3.0 | 6.0 | 0.00 | 0.00 | 0.00 | 37 | 1011.7 |
| 20260830223504 | 101 | 156 | 3.0 | 7.0 | 0.00 | 0.00 | 0.00 | 37 | 1011.8 |
| 20260830223004 | 101 | 155 | 3.0 | 7.0 | 0.00 | 0.00 | 0.00 | 37 | 1011.8 |
| 20260830222504 | 101 | 145 | 2.0 | 7.0 | 0.00 | 0.00 | 0.00 | 38 | 1011.8 |
| 20260830222004 | 100 | 141 | 2.0 | 7.0 | 0.00 | 0.00 | 0.00 | 37 | 1011.7 |
| 20260830221504 | 100 | 170 | 3.0 | 7.0 | 0.00 | 0.00 | 0.00 | 38 | 1011.7 |
| 20260830221004 | 101 | 195 | 2.0 | 5.0 | 0.00 | 0.00 | 0.00 | 37 | 1011.7 |
| 20260830220504 | 101 | 139 | 3.0 | 7.0 | 0.00 | 0.00 | 0.00 | 37 | 1011.8 |
| 20260830220004 | 101 | 152 | 4.0 | 7.0 | 0.00 | 0.00 | 0.00 | 36 | 1011.7 |
| 20260830215504 | 101 | 175 | 3.0 | 8.0 | 0.00 | 0.00 | 0.00 | 37 | 1011.8 |
| 20260830215004 | 101 | 155 | 3.0 | 8.0 | 0.00 | 0.00 | 0.00 | 37 | 1011.9 |
| 20260830214504 | 101 | 153 | 3.0 | 7.0 | 0.00 | 0.00 | 0.00 | 38 | 1011.9 |
| 20260830214004 | 102 | 145 | 3.0 | 7.0 | 0.00 | 0.00 | 0.00 | 36 | 1011.9 |
| 20260830213504 | 102 | 139 | 2.0 | 6.0 | 0.00 | 0.00 | 0.00 | 37 | 1012.0 |
| 20260830213004 | 101 | 158 | 3.0 | 8.0 | 0.00 | 0.00 | 0.00 | 38 | 1012.0 |
| 20260830212504 | 102 | 160 | 4.0 | 8.0 | 0.00 | 0.00 | 0.00 | 38 | 1012.1 |
| 20260830212004 | 102 | 164 | 4.0 | 8.0 | 0.00 | 0.00 | 0.00 | 38 | 1012.2 |
| 20260830211504 | 102 | 168 | 3.0 | 8.0 | 0.00 | 0.00 | 0.00 | 37 | 1012.3 |
| 20260830211004 | 103 | 166 | 2.0 | 6.0 | 0.00 | 0.00 | 0.00 | 38 | 1012.4 |
| 20260830210504 | 101 | 196 | 2.0 | 5.0 | 0.00 | 0.00 | 0.00 | 41 | 1012.5 |
| 20260830210007 | 101 | 198 | 2.0 | 6.0 | 0.00 | 0.00 | 0.00 | 40 | 1012.6 |
| 20260830205504 | 101 | 170 | 3.0 | 9.0 | 0.00 | 0.00 | 0.00 | 40 | 1012.8 |
| 20260830205004 | 101 | 156 | 3.0 | 9.0 | 0.00 | 0.00 | 0.00 | 42 | 1012.8 |
| 20260830204504 | 101 | 101 | 3.0 | 6.0 | 0.00 | 0.00 | 0.00 | 39 | 1012.9 |
| 20260830204004 | 100 | 100 | 3.0 | 7.0 | 0.00 | 0.00 | 0.00 | 40 | 1013.0 |
| 20260830203504 | 99 | 140 | 3.0 | 8.0 | 0.00 | 0.00 | 0.00 | 42 | 1013.1 |
| 20260830203004 | 100 | 103 | 3.0 | 8.0 | 0.00 | 0.00 | 0.00 | 43 | 1013.1 |
| 20260830202504 | 100 | 109 | 3.0 | 7.0 | 0.00 | 0.00 | 0.00 | 41 | 1013.2 |
| 20260830202004 | 102 | 141 | 3.0 | 7.0 | 0.00 | 0.00 | 0.00 | 41 | 1013.2 |
| 20260830201504 | 101 | 159 | 3.0 | 7.0 | 0.00 | 0.00 | 0.00 | 45 | 1013.1 |
| 20260830201004 | 100 | 168 | 4.0 | 7.0 | 0.00 | 0.00 | 0.00 | 44 | 1013.3 |
| 20260830200504 | 101 | 168 | 3.0 | 7.0 | 0.00 | 0.00 | 0.00 | 39 | 1013.3 |
| 20260830200004 | 101 | 196 | 3.0 | 8.0 | 0.00 | 0.00 | 0.00 | 42 | 1013.3 |
| 20260830195504 | 100 | 224 | 3.0 | 8.0 | 0.00 | 0.00 | 0.00 | 39 | 1013.4 |
| 20260830195025 | 100 | 8 | 2.0 | 5.0 | 0.00 | 0.00 | 0.00 | 40 | 1013.4 |
| 20260830194504 | 98 | 198 | 3.0 | 5.0 | 0.00 | 0.00 | 0.00 | 41 | 1013.5 |
| 20260830194025 | 99 | 189 | 3.0 | 6.0 | 0.00 | 0.00 | 0.00 | 42 | 1013.7 |
| 20260830193504 | 99 | 182 | 3.0 | 6.0 | 0.00 | 0.00 | 0.00 | 42 | 1013.8 |
| 20260830193004 | 99 | 180 | 3.0 | 10.0 | 0.00 | 0.00 | 0.00 | 47 | 1013.9 |
| 20260830192525 | 99 | 192 | 5.0 | 10.0 | 0.00 | 0.00 | 0.00 | 44 | 1014.0 |
| 20260830192025 | 100 | 172 | 5.0 | 9.0 | 0.00 | 0.00 | 0.00 | 43 | 1014.1 |
| 20260830191504 | 101 | 169 | 4.0 | 8.0 | 0.00 | 0.00 | 0.00 | 40 | 1014.1 |
| 20260830191004 | 100 | 197 | 4.0 | 10.0 | 0.00 | 0.00 | 0.00 | 45 | 1014.3 |
| 20260830190504 | 100 | 192 | 3.0 | 10.0 | 0.00 | 0.00 | 0.00 | 47 | 1014.3 |
| 20260830190004 | 99 | 187 | 4.0 | 9.0 | 0.00 | 0.00 | 0.00 | 46 | 1014.4 |
| 20260830185504 | 101 | 172 | 4.0 | 9.0 | 0.00 | 0.00 | 0.00 | 44 | 1014.5 |
| 20260830185004 | 100 | 162 | 4.0 | 8.0 | 0.00 | 0.00 | 0.00 | 47 | 1014.6 |
| 20260830184504 | 99 | 180 | 4.0 | 8.0 | 0.00 | 0.00 | 0.00 | 45 | 1014.7 |
| 20260830184004 | 100 | 214 | 4.0 | 8.0 | 0.00 | 0.00 | 0.00 | 47 | 1014.8 |
| 20260830183504 | 98 | 232 | 3.0 | 7.0 | 0.00 | 0.00 | 0.00 | 49 | 1014.8 |
| 20260830183004 | 98 | 181 | 3.0 | 7.0 | 0.00 | 0.00 | 0.00 | 49 | 1014.9 |
| 20260830182504 | 98 | 153 | 3.0 | 7.0 | 0.00 | 0.00 | 0.00 | 47 | 1015.0 |
| 20260830182025 | 99 | 170 | 3.0 | 10.0 | 0.00 | 0.00 | 0.00 | 48 | 1015.1 |
| 20260830181504 | 100 | 173 | 3.0 | 10.0 | 0.00 | 0.00 | 0.00 | 47 | 1015.2 |
| 20260830181004 | 98 | 202 | 3.0 | 8.0 | 0.00 | 0.00 | 0.00 | 51 | 1015.2 |
| 20260830180504 | 97 | 255 | 3.0 | 8.0 | 0.00 | 0.00 | 0.00 | 50 | 1015.2 |
| 20260830180004 | 98 | 256 | 3.0 | 6.0 | 0.00 | 0.00 | 0.00 | 49 | 1015.3 |
| 20260830175504 | 98 | 229 | 3.0 | 10.0 | 0.00 | 0.00 | 0.00 | 52 | 1015.3 |
| 20260830175004 | 97 | 192 | 3.0 | 10.0 | 0.00 | 0.00 | 0.00 | 48 | 1015.4 |
| 20260830174504 | 98 | 180 | 3.0 | 8.0 | 0.00 | 0.00 | 0.00 | 49 | 1015.5 |
| 20260830174004 | 99 | 183 | 3.0 | 8.0 | 0.00 | 0.00 | 0.00 | 48 | 1015.6 |
| 20260830173504 | 98 | 190 | 2.0 | 8.0 | 0.00 | 0.00 | 0.00 | 50 | 1015.6 |
| 20260830173004 | 98 | 212 | 4.0 | 8.0 | 0.00 | 0.00 | 0.00 | 49 | 1015.7 |
| 20260830172504 | 97 | 225 | 4.0 | 7.0 | 0.00 | 0.00 | 0.00 | 52 | 1015.7 |
| 20260830172025 | 97 | 232 | 4.0 | 7.0 | 0.00 | 0.00 | 0.00 | 50 | 1015.8 |
| 20260830171504 | 96 | 237 | 3.0 | 7.0 | 0.00 | 0.00 | 0.00 | 51 | 1015.8 |
| 20260830171004 | 96 | 192 | 3.0 | 6.0 | 0.00 | 0.00 | 0.00 | 51 | 1015.8 |
| 20260830170504 | 97 | 177 | 3.0 | 7.0 | 0.00 | 0.00 | 0.00 | 51 | 1015.8 |
| 20260830170004 | 96 | 190 | 4.0 | 9.0 | 0.00 | 0.00 | 0.00 | 51 | 1015.8 |
| 20260830165525 | 97 | 168 | 4.0 | 9.0 | 0.00 | 0.00 | 0.00 | 49 | 1015.9 |
| 20260830165025 | 96 | 167 | 4.0 | 9.0 | 0.00 | 0.00 | 0.00 | 51 | 1016.0 |
| 20260830164504 | 96 | 158 | 4.0 | 10.0 | 0.00 | 0.00 | 0.00 | 51 | 1016.0 |
| 20260830164004 | 96 | 157 | 4.0 | 12.0 | 0.00 | 0.00 | 0.00 | 49 | 1016.1 |
| 20260830163504 | 96 | 184 | 4.0 | 12.0 | 0.00 | 0.00 | 0.00 | 49 | 1016.0 |
| 20260830163004 | 96 | 189 | 4.0 | 10.0 | 0.00 | 0.00 | 0.00 | 51 | 1016.1 |
| 20260830162504 | 96 | 183 | 4.0 | 9.0 | 0.00 | 0.00 | 0.00 | 53 | 1016.1 |
| 20260830162025 | 95 | 200 | 4.0 | 9.0 | 0.00 | 0.00 | 0.00 | 51 | 1016.1 |
| 20260830161504 | 95 | 186 | 4.0 | 8.0 | 0.00 | 0.00 | 0.00 | 52 | 1016.1 |
| 20260830161004 | 95 | 187 | 4.0 | 8.0 | 0.00 | 0.00 | 0.00 | 53 | 1016.1 |
| 20260830160504 | 95 | 207 | 3.0 | 8.0 | 0.00 | 0.00 | 0.00 | 54 | 1016.2 |
| 20260830160025 | 95 | 199 | 3.0 | 8.0 | 0.00 | 0.00 | 0.00 | 54 | 1016.2 |
| 20260830155525 | 95 | 187 | 3.0 | 7.0 | 0.00 | 0.00 | 0.00 | 55 | 1016.3 |
| 20260830155004 | 94 | 181 | 3.0 | 7.0 | 0.00 | 0.00 | 0.00 | 58 | 1016.2 |
| 20260830154504 | 93 | 178 | 3.0 | 7.0 | 0.00 | 0.00 | 0.00 | 62 | 1016.2 |
| 20260830154025 | 93 | 169 | 3.0 | 6.0 | 0.00 | 0.00 | 0.00 | 58 | 1016.2 |
| 20260830153504 | 92 | 183 | 2.0 | 6.0 | 0.00 | 0.00 | 0.00 | 60 | 1016.2 |
| 20260830153004 | 92 | 200 | 2.0 | 8.0 | 0.00 | 0.00 | 0.00 | 63 | 1016.2 |
| 20260830152504 | 92 | 199 | 3.0 | 8.0 | 0.00 | 0.00 | 0.00 | 64 | 1016.2 |
| 20260830152004 | 91 | 204 | 2.0 | 5.0 | 0.00 | 0.00 | 0.00 | 64 | 1016.2 |
| 20260830151503 | 91 | 217 | 2.0 | 5.0 | 0.00 | 0.00 | 0.00 | 65 | 1016.2 |
| 20260830151025 | 90 | 229 | 2.0 | 5.0 | 0.00 | 0.00 | 0.00 | 67 | 1016.3 |
| 20260830150504 | 90 | 235 | 2.0 | 5.0 | 0.00 | 0.00 | 0.00 | 66 | 1016.3 |
| 20260830150004 | 89 | 221 | 2.0 | 4.0 | 0.00 | 0.00 | 0.00 | 67 | 1016.3 |
| 20260830145503 | 89 | 224 | 2.0 | 6.0 | 0.00 | 0.00 | 0.00 | 69 | 1016.3 |
| 20260830145025 | 89 | 246 | 2.0 | 6.0 | 0.00 | 0.00 | 0.00 | 68 | 1016.3 |
| 20260830144504 | 88 | 191 | 2.0 | 5.0 | 0.00 | 0.00 | 0.00 | 72 | 1016.4 |
| 20260830144025 | 88 | 190 | 3.0 | 7.0 | 0.00 | 0.00 | 0.00 | 72 | 1016.4 |
| 20260830143503 | 87 | 189 | 3.0 | 7.0 | 0.00 | 0.00 | 0.00 | 73 | 1016.5 |
| 20260830143003 | 86 | 192 | 3.0 | 7.0 | 0.00 | 0.00 | 0.00 | 75 | 1016.5 |
| 20260830142504 | 86 | 206 | 2.0 | 4.0 | 0.00 | 0.00 | 0.00 | 77 | 1016.5 |
| 20260830142004 | 85 | 213 | 2.0 | 6.0 | 0.00 | 0.00 | 0.00 | 78 | 1016.5 |
| 20260830141503 | 84 | 226 | 2.0 | 6.0 | 0.00 | 0.00 | 0.00 | 80 | 1016.4 |
| 20260830141003 | 83 | 220 | 2.0 | 5.0 | 0.00 | 0.00 | 0.00 | 83 | 1016.4 |
| 20260830140504 | 82 | 212 | 2.0 | 5.0 | 0.00 | 0.00 | 0.00 | 85 | 1016.4 |
| 20260830140004 | 81 | 224 | 2.0 | 4.0 | 0.00 | 0.00 | 0.00 | 87 | 1016.5 |
| 20260830135503 | 80 | 218 | 2.0 | 4.0 | 0.00 | 0.00 | 0.00 | 88 | 1016.4 |
| 20260830135004 | 79 | 200 | 1.0 | 3.0 | 0.00 | 0.00 | 0.00 | 90 | 1016.5 |
| 20260830134503 | 78 | 202 | 2.0 | 4.0 | 0.00 | 0.00 | 0.00 | 90 | 1016.5 |
| 20260830134003 | 78 | 214 | 2.0 | 4.0 | 0.00 | 0.00 | 0.00 | 91 | 1016.4 |
| 20260830133503 | 77 | 238 | 1.0 | 3.0 | 0.00 | 0.00 | 0.00 | 91 | 1016.3 |
| 20260830133003 | 77 | 241 | 1.0 | 3.0 | 0.00 | 0.00 | 0.00 | 91 | 1016.3 |
| 20260830132504 | 77 | 230 | 1.0 | 3.0 | 0.00 | 0.00 | 0.00 | 91 | 1016.4 |
| 20260830132003 | 76 | 205 | 1.0 | 3.0 | 0.00 | 0.00 | 0.00 | 91 | 1016.3 |
| 20260830131504 | 76 | 175 | 1.0 | 2.0 | 0.00 | 0.00 | 0.00 | 91 | 1016.3 |
| 20260830131025 | 76 | 180 | 1.0 | 3.0 | 0.00 | 0.00 | 0.00 | 91 | 1016.2 |
| 20260830130504 | 76 | 180 | 1.0 | 3.0 | 0.00 | 0.00 | 0.00 | 91 | 1016.3 |
| 20260830130003 | 75 | 176 | 1.0 | 2.0 | 0.00 | 0.00 | 0.00 | 91 | 1016.1 |
| 20260830125503 | 75 | 177 | 1.0 | 2.0 | 0.00 | 0.00 | 0.00 | 91 | 1016.2 |
| 20260830125003 | 74 | 160 | 0.0 | 2.0 | 0.00 | 0.00 | 0.00 | 90 | 1016.2 |
| 20260830124525 | 74 | 140 | 0.0 | 1.0 | 0.00 | 0.00 | 0.00 | 90 | 1016.1 |
| 20260830124003 | 74 | 12 | 0.0 | 1.0 | 0.00 | 0.00 | 0.00 | 90 | 1016.0 |
| 20260830123503 | 74 | 3 | 0.0 | 1.0 | 0.00 | 0.00 | 0.00 | 90 | 1015.9 |
| 20260830123003 | 74 | 348 | 0.0 | 1.0 | 0.00 | 0.00 | 0.00 | 90 | 1015.9 |
| 20260830122503 | 74 | 209 | 0.0 | 1.0 | 0.00 | 0.00 | 0.00 | 90 | 1015.8 |
| 20260830122004 | 74 | 218 | 1.0 | 2.0 | 0.00 | 0.00 | 0.00 | 90 | 1015.8 |
| 20260830121504 | 74 | 220 | 1.0 | 2.0 | 0.00 | 0.00 | 0.00 | 90 | 1015.9 |
| 20260830121003 | 74 | 210 | 1.0 | 2.0 | 0.00 | 0.00 | 0.00 | 90 | 1015.8 |
| 20260830120525 | 74 | 204 | 1.0 | 2.0 | 0.00 | 0.00 | 0.00 | 90 | 1015.8 |
| 20260830120004 | 74 | 190 | 1.0 | 2.0 | 0.00 | 0.00 | 0.00 | 90 | 1015.7 |
| 20260830115503 | 74 | 175 | 1.0 | 1.0 | 0.00 | 0.00 | 0.00 | 90 | 1015.7 |
| 20260830115003 | 75 | 172 | 0.0 | 1.0 | 0.00 | 0.00 | 0.00 | 90 | 1015.6 |
| 20260830114503 | 75 | 181 | 0.0 | 1.0 | 0.00 | 0.00 | 0.00 | 90 | 1015.6 |
| 20260830114003 | 75 | 171 | 0.0 | 2.0 | 0.00 | 0.00 | 0.00 | 89 | 1015.5 |
| 20260830113503 | 75 | 170 | 1.0 | 2.0 | 0.00 | 0.00 | 0.00 | 89 | 1015.5 |
| 20260830113004 | 75 | 186 | 0.0 | 2.0 | 0.00 | 0.00 | 0.00 | 89 | 1015.4 |
| 20260830112504 | 75 | 232 | 0.0 | 1.0 | 0.00 | 0.00 | 0.00 | 89 | 1015.4 |
| 20260830112024 | 75 | 213 | 0.0 | 1.0 | 0.00 | 0.00 | 0.00 | 89 | 1015.4 |
| 20260830111503 | 75 | 128 | 0.0 | 1.0 | 0.00 | 0.00 | 0.00 | 89 | 1015.4 |
| 20260830111003 | 76 | 80 | 0.0 | 1.0 | 0.00 | 0.00 | 0.00 | 89 | 1015.4 |
| 20260830110504 | 76 | 3 | 1.0 | 1.0 | 0.00 | 0.00 | 0.00 | 89 | 1015.3 |
| 20260830110004 | 76 | 12 | 1.0 | 2.0 | 0.00 | 0.00 | 0.00 | 89 | 1015.3 |
| 20260830105504 | 76 | 21 | 1.0 | 2.0 | 0.00 | 0.00 | 0.00 | 89 | 1015.2 |
| 20260830105003 | 76 | 307 | 0.0 | 1.0 | 0.00 | 0.00 | 0.00 | 89 | 1015.3 |
| 20260830104504 | 76 | 236 | 0.0 | 1.0 | 0.00 | 0.00 | 0.00 | 89 | 1015.2 |
| 20260830104003 | 76 | 239 | 0.0 | 1.0 | 0.00 | 0.00 | 0.00 | 89 | 1015.3 |
| 20260830103503 | 76 | 242 | 0.0 | 1.0 | 0.00 | 0.00 | 0.00 | 89 | 1015.3 |
| 20260830103003 | 76 | 198 | 0.0 | 1.0 | 0.00 | 0.00 | 0.00 | 88 | 1015.2 |
| 20260830102504 | 76 | 180 | 0.0 | 2.0 | 0.00 | 0.00 | 0.00 | 88 | 1015.1 |
| 20260830102004 | 76 | 162 | 0.0 | 2.0 | 0.00 | 0.00 | 0.00 | 88 | 1015.0 |
| 20260830101503 | 76 | 142 | 0.0 | 1.0 | 0.00 | 0.00 | 0.00 | 88 | 1015.1 |
| 20260830101003 | 76 | 12 | 0.0 | 1.0 | 0.00 | 0.00 | 0.00 | 88 | 1015.0 |
| 20260830100503 | 76 | 9 | 0.0 | 1.0 | 0.00 | 0.00 | 0.00 | 88 | 1015.0 |
| 20260830100004 | 76 | 181 | 1.0 | 3.0 | 0.00 | 0.00 | 0.00 | 88 | 1014.9 |
| 20260830095503 | 76 | 178 | 1.0 | 3.0 | 0.00 | 0.00 | 0.00 | 88 | 1014.8 |
| 20260830095003 | 77 | 180 | 1.0 | 2.0 | 0.00 | 0.00 | 0.00 | 87 | 1014.7 |
| 20260830094524 | 77 | 186 | 1.0 | 2.0 | 0.00 | 0.00 | 0.00 | 87 | 1014.7 |
| 20260830094024 | 77 | 189 | 1.0 | 2.0 | 0.00 | 0.00 | 0.00 | 87 | 1014.8 |
| 20260830093524 | 77 | 198 | 1.0 | 3.0 | 0.00 | 0.00 | 0.00 | 87 | 1014.8 |
| 20260830093003 | 77 | 204 | 1.0 | 3.0 | 0.00 | 0.00 | 0.00 | 87 | 1014.8 |
| 20260830092524 | 77 | 197 | 1.0 | 2.0 | 0.00 | 0.00 | 0.00 | 87 | 1014.9 |
| 20260830092003 | 77 | 188 | 1.0 | 2.0 | 0.00 | 0.00 | 0.00 | 86 | 1014.9 |
| 20260830091503 | 77 | 185 | 1.0 | 2.0 | 0.00 | 0.00 | 0.00 | 86 | 1014.8 |
| 20260830091024 | 78 | 190 | 1.0 | 2.0 | 0.00 | 0.00 | 0.00 | 86 | 1014.8 |
| 20260830090504 | 78 | 198 | 0.0 | 2.0 | 0.00 | 0.00 | 0.00 | 86 | 1014.8 |
| 20260830090004 | 78 | 195 | 0.0 | 2.0 | 0.00 | 0.00 | 0.00 | 85 | 1014.8 |
| 20260830085504 | 78 | 203 | 1.0 | 2.0 | 0.00 | 0.00 | 0.00 | 85 | 1014.8 |
| 20260830085003 | 78 | 204 | 1.0 | 2.0 | 0.00 | 0.00 | 0.00 | 85 | 1014.8 |
| 20260830084524 | 78 | 187 | 1.0 | 2.0 | 0.00 | 0.00 | 0.00 | 85 | 1014.8 |
| 20260830084004 | 78 | 152 | 1.0 | 2.0 | 0.00 | 0.00 | 0.00 | 85 | 1014.9 |
| 20260830083524 | 78 | 146 | 1.0 | 2.0 | 0.00 | 0.00 | 0.00 | 85 | 1014.8 |
| 20260830083003 | 78 | 157 | 1.0 | 2.0 | 0.00 | 0.00 | 0.00 | 85 | 1014.8 |
| 20260830082503 | 78 | 176 | 0.0 | 2.0 | 0.00 | 0.00 | 0.00 | 84 | 1014.8 |
| 20260830082003 | 78 | 190 | 1.0 | 2.0 | 0.00 | 0.00 | 0.00 | 84 | 1014.8 |
| 20260830081503 | 78 | 175 | 1.0 | 2.0 | 0.00 | 0.00 | 0.00 | 84 | 1014.9 |
| 20260830081003 | 78 | 180 | 1.0 | 2.0 | 0.00 | 0.00 | 0.00 | 84 | 1014.9 |
| 20260830080524 | 79 | 191 | 0.0 | 2.0 | 0.00 | 0.00 | 0.00 | 84 | 1014.9 |
| 20260830080004 | 79 | 174 | 0.0 | 1.0 | 0.00 | 0.00 | 0.00 | 84 | 1014.9 |
| 20260830075504 | 79 | 180 | 0.0 | 1.0 | 0.00 | 0.00 | 0.00 | 84 | 1014.9 |
| 20260830075003 | 79 | 242 | 0.0 | 1.0 | 0.00 | 0.00 | 0.00 | 84 | 1014.8 |
| 20260830074503 | 79 | 196 | 0.0 | 2.0 | 0.00 | 0.00 | 0.00 | 84 | 1014.9 |
| 20260830074003 | 79 | 196 | 1.0 | 2.0 | 0.00 | 0.00 | 0.00 | 83 | 1014.9 |
| 20260830073503 | 79 | 196 | 1.0 | 2.0 | 0.00 | 0.00 | 0.00 | 83 | 1015.0 |
| 20260830073003 | 79 | 187 | 1.0 | 2.0 | 0.00 | 0.00 | 0.00 | 83 | 1014.9 |
| 20260830072503 | 79 | 182 | 1.0 | 3.0 | 0.00 | 0.00 | 0.00 | 83 | 1014.9 |
| 20260830072003 | 79 | 186 | 1.0 | 3.0 | 0.00 | 0.00 | 0.00 | 82 | 1014.9 |
| 20260830071503 | 80 | 183 | 1.0 | 3.0 | 0.00 | 0.00 | 0.00 | 82 | 1014.9 |
| 20260830071003 | 80 | 180 | 1.0 | 3.0 | 0.00 | 0.00 | 0.00 | 82 | 1014.9 |
| 20260830070503 | 80 | 184 | 1.0 | 3.0 | 0.00 | 0.00 | 0.00 | 81 | 1014.9 |
| 20260830070003 | 80 | 186 | 1.0 | 3.0 | 0.00 | 0.00 | 0.00 | 81 | 1014.9 |
| 20260830065503 | 80 | 185 | 1.0 | 3.0 | 0.00 | 0.00 | 0.00 | 81 | 1015.0 |
| 20260830065024 | 80 | 182 | 1.0 | 3.0 | 0.00 | 0.00 | 0.00 | 80 | 1014.9 |
| 20260830064503 | 80 | 175 | 1.0 | 4.0 | 0.00 | 0.00 | 0.00 | 80 | 1015.0 |
| 20260830064003 | 80 | 185 | 1.0 | 4.0 | 0.00 | 0.00 | 0.00 | 80 | 1015.1 |
| 20260830063503 | 80 | 195 | 2.0 | 3.0 | 0.00 | 0.00 | 0.00 | 79 | 1015.1 |
| 20260830063003 | 80 | 183 | 2.0 | 3.0 | 0.00 | 0.00 | 0.00 | 79 | 1015.0 |
| 20260830062503 | 80 | 175 | 2.0 | 3.0 | 0.00 | 0.00 | 0.00 | 79 | 1015.0 |
| 20260830062024 | 81 | 181 | 2.0 | 3.0 | 0.00 | 0.00 | 0.00 | 78 | 1015.1 |
| 20260830061503 | 81 | 180 | 2.0 | 5.0 | 0.00 | 0.00 | 0.00 | 78 | 1015.1 |
| 20260830061004 | 81 | 173 | 2.0 | 5.0 | 0.00 | 0.00 | 0.00 | 78 | 1015.0 |
| 20260830060504 | 81 | 176 | 2.0 | 4.0 | 0.00 | 0.00 | 0.00 | 77 | 1015.0 |
| 20260830060004 | 81 | 187 | 2.0 | 3.0 | 0.00 | 0.00 | 0.00 | 77 | 1015.0 |
| 20260830055504 | 81 | 192 | 1.0 | 3.0 | 0.00 | 0.00 | 0.00 | 76 | 1015.0 |
| 20260830055004 | 81 | 185 | 1.0 | 3.0 | 0.00 | 0.00 | 0.00 | 76 | 1014.9 |
| 20260830054504 | 81 | 182 | 1.0 | 3.0 | 0.00 | 0.00 | 0.00 | 75 | 1014.9 |
| 20260830054004 | 81 | 181 | 1.0 | 3.0 | 0.00 | 0.00 | 0.00 | 75 | 1015.0 |
| 20260830053504 | 81 | 189 | 1.0 | 2.0 | 0.00 | 0.00 | 0.00 | 75 | 1014.8 |
| 20260830053004 | 82 | 172 | 1.0 | 2.0 | 0.00 | 0.00 | 0.00 | 74 | 1014.8 |
| 20260830052504 | 82 | 169 | 1.0 | 3.0 | 0.00 | 0.00 | 0.00 | 74 | 1014.8 |
| 20260830052004 | 82 | 176 | 1.0 | 4.0 | 0.00 | 0.00 | 0.00 | 73 | 1014.7 |
| 20260830051504 | 82 | 173 | 1.0 | 4.0 | 0.00 | 0.00 | 0.00 | 73 | 1014.7 |
| 20260830051004 | 82 | 169 | 1.0 | 3.0 | 0.00 | 0.00 | 0.00 | 73 | 1014.7 |
| 20260830050504 | 82 | 165 | 1.0 | 3.0 | 0.00 | 0.00 | 0.00 | 72 | 1014.7 |
| 20260830050004 | 83 | 156 | 1.0 | 3.0 | 0.00 | 0.00 | 0.00 | 71 | 1014.7 |
| 20260830045504 | 83 | 159 | 1.0 | 2.0 | 0.00 | 0.00 | 0.00 | 70 | 1014.7 |
| 20260830045004 | 83 | 184 | 1.0 | 2.0 | 0.00 | 0.00 | 0.00 | 70 | 1014.7 |
| 20260830044504 | 83 | 199 | 1.0 | 2.0 | 0.00 | 0.00 | 0.00 | 69 | 1014.7 |
| 20260830044004 | 84 | 169 | 1.0 | 2.0 | 0.00 | 0.00 | 0.00 | 69 | 1014.7 |
| 20260830043504 | 84 | 148 | 1.0 | 3.0 | 0.00 | 0.00 | 0.00 | 68 | 1014.7 |
| 20260830043025 | 84 | 164 | 1.0 | 3.0 | 0.00 | 0.00 | 0.00 | 68 | 1014.6 |
| 20260830042504 | 84 | 182 | 1.0 | 3.0 | 0.00 | 0.00 | 0.00 | 67 | 1014.7 |
| 20260830042004 | 84 | 182 | 1.0 | 4.0 | 0.00 | 0.00 | 0.00 | 66 | 1014.6 |
| 20260830041525 | 85 | 181 | 1.0 | 4.0 | 0.00 | 0.00 | 0.00 | 66 | 1014.6 |
| 20260830041004 | 85 | 187 | 1.0 | 2.0 | 0.00 | 0.00 | 0.00 | 65 | 1014.6 |
| 20260830040504 | 85 | 177 | 1.0 | 3.0 | 0.00 | 0.00 | 0.00 | 65 | 1014.6 |
| 20260830040025 | 85 | 161 | 1.0 | 3.0 | 0.00 | 0.00 | 0.00 | 64 | 1014.5 |
| 20260830035504 | 86 | 144 | 2.0 | 4.0 | 0.00 | 0.00 | 0.00 | 63 | 1014.5 |
| 20260830035004 | 86 | 142 | 2.0 | 4.0 | 0.00 | 0.00 | 0.00 | 63 | 1014.5 |
| 20260830034504 | 86 | 154 | 2.0 | 5.0 | 0.00 | 0.00 | 0.00 | 62 | 1014.5 |
| 20260830034004 | 86 | 152 | 2.0 | 5.0 | 0.00 | 0.00 | 0.00 | 62 | 1014.4 |
| 20260830033525 | 85 | 151 | 1.0 | 4.0 | 0.00 | 0.00 | 0.00 | 61 | 1014.4 |
| 20260830033025 | 85 | 133 | 0.0 | 2.0 | 0.00 | 0.00 | 0.00 | 60 | 1014.4 |
| 20260830032504 | 85 | 63 | 1.0 | 2.0 | 0.00 | 0.00 | 0.00 | 60 | 1014.4 |
| 20260830032025 | 85 | 52 | 1.0 | 2.0 | 0.00 | 0.00 | 0.00 | 60 | 1014.4 |
| 20260830031504 | 85 | 77 | 1.0 | 4.0 | 0.00 | 0.00 | 0.00 | 60 | 1014.3 |
| 20260830031004 | 85 | 131 | 1.0 | 4.0 | 0.00 | 0.00 | 0.00 | 60 | 1014.1 |